Regional Weather Roundup
Issued by NWS

Home | Current Version | Previous Version | Text Only | Print | Product List | Glossary On
Versions: 1 2 3 4 5 6 7 8 9 10 11 12 13 14 15 16 17 18 19 20 21 22 23 24 25 26 27 28 29 30 31 32 33 34 35 36 37 38 39 40 41 42 43 44 45 46 47 48 49 50
000
ASUS43 KBIS 252102
RWRND

NORTH DAKOTA REGIONAL WEATHER ROUNDUP
NATIONAL WEATHER SERVICE BISMARCK ND
300 PM CST SAT FEB 25 2017

NOTE: "FAIR" INDICATES FEW OR NO CLOUDS BELOW 12,000 FEET WITH NO
SIGNIFICANT WEATHER AND/OR OBSTRUCTIONS TO VISIBILITY.


NDZ001>003-009>011-017-252200-
NORTHWEST NORTH DAKOTA

CITY           SKY/WX    TMP DP  RH WIND       PRES   REMARKS
WILLISTON      LGT SNOW  26  21  81 SW7       29.71F WCI  18
MINOT          FLURRIES  23  15  71 NW7       29.76F WCI  15
$$

NDZ018>021-031>035-040>046-252200-
SOUTHWEST NORTH DAKOTA

CITY           SKY/WX    TMP DP  RH WIND       PRES   REMARKS
BISMARCK       CLOUDY    29  20  69 VRB6      29.79F
DICKINSON      PTSUNNY   28  19  69 W13       29.71F WCI  17
GARRISON         N/A     24  18  77 W6        29.76F WCI  17
HETTINGER ARPT CLOUDY    32  15  49 W15       29.75F
$$

NDZ004>008-012>016-024-026-027-054-252200-
NORTHEAST NORTH DAKOTA

CITY           SKY/WX    TMP DP  RH WIND       PRES   REMARKS
GRAND FORKS    PTSUNNY   30  16  56 NW15      29.78S WCI  19
GRND FRKS AFB  MOSUNNY   32  19  59 W14       29.77F
DEVILS LAKE    FAIR      24  15  68 W15       29.76F WCI  11
$$

NDZ022-023-025-028>030-036>039-047>053-252200-
SOUTHEAST NORTH DAKOTA

CITY           SKY/WX    TMP DP  RH WIND       PRES   REMARKS
FARGO          CLOUDY    31  24  75 W13       29.80F
JAMESTOWN      PTSUNNY   28  20  71 NW10      29.77F WCI  19
$$





USA.gov is the U.S. government's official web portal to all federal, state and local government web resources and services.